{"data":{"norad_id":43529,"epoch":"2026-05-25T04:13:28.755264Z","epoch_age_seconds":56262,"freshness":"FRESH","line1":"1 43529U 18056A   26145.17602726  .00002308  00000+0  19523-3 0  9997","line2":"2 43529  98.1246 300.6845 0021852 181.0335 179.0845 14.98951501428472","mean_motion":14.98951501,"eccentricity":0.0021852,"inclination_deg":98.1246,"raan_deg":300.6845,"arg_perigee_deg":181.0335,"mean_anomaly_deg":179.0845,"bstar":0.00019523,"rev_number":42847,"period_min":96.067150874416,"perigee_km":554.95125133701,"apogee_km":585.31797760088,"semimajor_km":6948.2716144689,"source":"CELESTRAK","updated_at":"2026-05-25T13:37:55.833391Z"}}